Regional Weather Roundup
Issued by NWS Charleston, SC

Current Version | Previous Version | Text Only | Print | Product List | Glossary Off
Versions: 1 2 3 4 5 6 7 8 9 10 11 12 13 14 15 16 17 18 19 20 21 22 23 24 25 26 27 28 29 30 31 32 33 34 35 36 37 38 39 40 41 42 43 44 45 46 47 48 49 50
000 ASUS42 KCHS 011827 RWRCHS REGIONAL WEATHER ROUNDUP NATIONAL WEATHER SERVICE CHARLESTON SC 200 PM EDT WED JUL 01 2015 NOTE: "FAIR" INDICATES FEW OR NO CLOUDS BELOW 12,000 FEET WITH NO SIGNIFICANT WEATHER AND/OR OBSTRUCTIONS TO VISIBILITY. NOT ALL STATIONS ARE QUALITY CONTROLLED BY THE NATIONAL WEATHER SERVICE. USE DATA WITH CAUTION...ESPECIALLY DEWPOINT OBSERVATIONS. SCZ027-030-031-034>040-042>050-011900- ...SOUTHEAST SOUTH CAROLINA... CITY SKY/WX TMP DP RH WIND PRES REMARKS N CHARLESTON PTSUNNY 85 70 60 W10 30.02F 6HR MIN TEMP: 72; 6HR MAX TEMP: 86; WATERFRONT PAR N/A 84 72 67 W5 29.99F MOUNT PLEASANT FAIR 88 72 58 W7 30.01S HX 94 JOHNS ISLAND N/A 86 72 62 W14 30.01F HX 92 PINOPOLIS NOT AVBL MONCKS CORNER MOCLDY 86 72 62 SW8 30.01F HX 92 SUMMERVILLE FAIR 86 72 62 SW7 30.03S HX 92 BEAUFORT MCAS PTSUNNY 87 72 60 W10G23 30.02F HX 93 BEAUFORT ARPT FAIR 88 73 62 W10 30.01F HX 96 HILTON HEAD IS MOSUNNY 88 72 58 SW8G17 30.04F HX 94 WALTERBORO FAIR 84 70 61 W7 30.03S ALLENDALE FAIR 86 72 62 VRB5G12 30.01F HX 92 ...SOUTHERN MIDLANDS AND PEE DEE... CITY SKY/WX TMP DP RH WIND PRES REMARKS GEORGETOWN NOT AVBL KINGSTREE NOT AVBL ORANGEBURG FAIR 85 70 60 W9 30.01F 6HR MIN TEMP: 70; 6HR MAX TEMP: 85; BARNWELL MOCLDY 88 72 58 SW10 30.02F HX 94 AIKEN NOT AVBL MANNING FAIR 82 66 57 SW8 29.99F COLUMBIA CLOUDY 86 68 54 SW10 29.99F 6HR MIN TEMP: 72; 6HR MAX TEMP: 86; SUMTER PTSUNNY 84 70 61 SW9 29.97F 6HR MIN TEMP: 71; 6HR MAX TEMP: 84; FLORENCE FAIR 85 71 63 W12 29.99S HX 90 6HR MIN TEMP: 72; 6HR MAX TEMP: 85; MYRTLE BEACH PTSUNNY 88 70 55 SW9 30.00F HX 92 N MYRTLE BEACH FAIR 83 72 69 S10 29.98F 6HR MIN TEMP: 73; 6HR MAX TEMP: 84; $$ GAZ063-065-086>088-099>101-113>116-118-119-134>141-150-011900- ...SOUTHEAST GEORGIA... CITY SKY/WX TMP DP RH WIND PRES REMARKS SAVANNAH ARPT PTSUNNY 86 69 56 W10G21 30.04F HX 90 6HR MIN TEMP: 73; 6HR MAX TEMP: 87; HUNTER AAF FAIR 87 73 62 W13G20 30.02 HX 95 6HR MIN TEMP: 73; 6HR MAX TEMP: 87; FORT STEWART PTSUNNY 88 70 55 W14 30.03F HX 92 6HR MIN TEMP: 73; 6HR MAX TEMP: 88; STATESBORO FAIR 85 75 70 W9 30.04F HX 93 SYLVANIA MOCLDY 87 74 66 W7 30.04F HX 95 CLAXTON FAIR 86 73 66 W7 30.04F HX 93 ...CSRA...CENTRAL AND FAR SOUTHEAST GEORGIA... CITY SKY/WX TMP DP RH WIND PRES REMARKS THOMSON FAIR 86 73 65 W10 30.08S HX 93 AUGUSTA-BUSH FAIR 87 69 54 W8 30.01F HX 91 6HR MIN TEMP: 71; 6HR MAX TEMP: 87; 6HR PCP: 0.01; AUGUSTA-DANIEL FAIR 87 68 52 W10 30.03F HX 90 SWAINSBORO FAIR 86 73 66 W8 30.05F HX 93 VIDALIA FAIR 88 72 58 SW10G16 30.05F HX 94 EASTMAN FAIR 88 71 57 SW7 30.07F HX 94 HAZLEHURST FAIR 89 72 56 SW9 30.05F HX 95 ALMA FAIR 88 70 55 SW13G21 30.07F HX 93 6HR MIN TEMP: 70; 6HR MAX TEMP: 89; WAYCROSS FAIR 93 74 53 W15G21 30.07F HX 102 JESUP FAIR 91 73 55 W10G22 30.05F HX 100 BAXLEY FAIR 90 72 55 W12 30.05F HX 96 BRUNSWICK FAIR 90 73 58 W13 30.07S HX 98 SAINT SIMONS FAIR 89 71 55 W13G20 30.06F HX 95 6HR MIN TEMP: 72; 6HR MAX TEMP: 89; $$ SCZ027-028-034-036>038-045-046-048>050-GAZ119-141-011900- ...LAKE AND SUPPLEMENTAL COASTAL OBSERVATIONS... STATION/POSITION TIME TEMP WIND PRES WAVE SWELL AIR SEA DIR/SP/G HT/PER HT/PER/DIR (UTC) (F) (DEG/KT/KT) (MB) (FT/S) (FT/S/D) UPR LAKE MARION NOT AVBL WINYAH BAY 1700 82 250/ 7 1015.0 LAKE MURRAY 1700 80 250/ 6/ 11 1015.9S ACE BASIN NERRS 1700 83 150/ 4 1017.0S FORT PULASKI 1800 84 84 270/ 13/ 17 1017.5F SAPELO ISLAND 1800 87 250/ 12 1018.0S $$ ANZ835-935-AMZ111-154-330-350-352-354-370-450-454-472-011900- ...C-MAN AND BUOY OBSERVATIONS... STATION/POSITION TIME TEMP WIND PRES WAVE SWELL AIR SEA DIR/SP/G HT/PER HT/PER/DIR (UTC) (F) (DEG/KT/KT) (MB) (FT/S) (FT/S/D) BUOY 41004 1750 79 81 240/ 19/ 23 1016.1F 6/ 8 3/ 8 BUOY 41008 1750 81 79 260/ 10/ 12 1018.0F 3/ 4 2/100/ 9 FOLLY BEACH CMAN 1800 83 220/ 15/ 17 1016.5F CAPERS NEARSHORE 1708 80 230/ 16/ 17 1017.2R FRIPP NEARSHORE 1700 81 230/ 12/ 16 1017.3S STATION/POSITION TIME TEMP WIND PRES WAVE SWELL AIR SEA DIR/SP/G HT/PER HT/PER/DIR (UTC) (F) (DEG/KT/KT) (MB) (FT/S) (FT/S/D) 5E ST. MARYS GA 1721 78 N/A 2/10 FRYING PAN BUOY 1750 79 80 240/ 16/ 17 1016.2F 5/ 6 2/140/ 8 BUOY 41025 1750 80 83 240/ 19/ 21 1014.4F 5/ 6 3/170/ 8 CAPE LOOKOUT NC 1800 81 220/ 12/ 18 1014.6F BUOY 41002 1750 82 80 230/ 17/ 23 1019.2F 6/ 7 2/140/12 BUOY 41010 1720 83 84 260/ 12/ 14 1021.1F ST AUGUSTINE FL 1800 89 75 260/ 10/ 12 1019.6F $$

USA.gov is the U.S. government's official web portal to all federal, state and local government web resources and services.